Location: Unspecified
(0.0000°N, 0.0000°E)
Time: 07:50:20
(UTC+00:00)

Tiangong 1 - Pass Details

Date: 21 November 2017
Orbit: 285 x 308 km, 42.8° (Epoch: 20 November)

Event Time Altitude Azimuth Distance (km) Brightness Sun altitude
Exits shadow 04:56:09 23° 285° (WNW) 667 1.6 -11.7°
Maximum altitude 04:57:21 42° 225° (SW) 420 1.0 -11.4°
Drops below altitude 10° 04:59:47 10° 151° (SSE) 1,137 4.2 -10.8°
Sets 05:01:47 0° 144° (SE) 1,962 5.7 -10.3°
